User: anonymous   Login
Location: Clatteringshaws Loch
(55.0508°N, 4.2860°W)
Time: 09:53:29
(UTC+01:00)
Language:

ALOS - Orbit

View from above orbital plane
View from above orbital plane
View from above satellite
View from above satellite

Ground track
Ground track

The orbit data is extracted from the following two-line orbital elements,

1 28931U 06002A   18112.19508694  .00000128  00000-0  33822-4 0  9999
2 28931  97.8229 128.7041 0002613  69.8396 290.3085 14.62480133652628
Epoch (UTC): 22 April 2018 04:40:55
Eccentricity: 0.0002613
inclination: 97.8229°
perigee height: 683 km
apogee height: 687 km
right ascension of ascending node: 128.7041°
argument of perigee: 69.8396°
revolutions per day: 14.62480133
mean anomaly at epoch: 290.3085°
orbit number at epoch: 65262

The dashed part of the orbit path shows where the satellite is in the earth's shadow,  

DLR